sat.trackr.live / text

‹ back to catalog

STARLINK-32659

NORAD 62427 · 2024-249U

PAYLOAD ACTIVE UNKNOWN

§ Identity

Operator
Country
US
Launch date
2024-12-23
Launch site
AFETR
Launch vehicle
Mass (kg)
RCS (m²)

Purposes: comms

External: N2YO · Heavens-Above · Gunter

§ Orbital elements

Epoch: 2026-09-21T06:48:19.958112Z

Period
94.27 min
Inclination
42.9998°
Eccentricity
0.0000913
Mean motion
15.27599805 rev/d
Perigee alt
482.4 km
Apogee alt
483.6 km
Semi-major
6,861.1 km
B*
3.5957e-4
RAAN
289.7721°
Arg perigee
242.5580°
Mean anomaly
117.5179°
Rev number
9,772

§ Raw data

STARLINK-326591 62427U 24249U   26264.28356433  .00009651  00000+0  35957-3 0  99982 62427  42.9998 289.7721 0000913 242.5580 117.5179 15.27599805 97726

JSON: /api/v1/satellites/62427 · /tle

For live sub-satellite position, see the globe view (requires WebGL).

§ Visibility from observer

Set your observer location to see the next 7 days of passes ≥ 10°. The values pass through the URL so the page stays shareable.

No JS? Fill the form by hand. The geolocation button needs JavaScript.